CZ-6A DEB, 61402

Orbit data source: Space-Track

CZ-6A DEB, 61402 is space debris in LEO originally from a launch on Tue, 06 Aug 2024 UTC launched from the Taiyaun Space Center, China (TSC). Debris objects in space refer to the collection of defunct objects orbiting the Earth. Examples of debris include non-operational satellites, rocket bodies, and fragments generated from explosions, collisions, or faulty payload assembly.

Loading next visibility...
Identifier
61402, 2024-140XT
Orbit
LEO
Country
Flag of CNCN / PRC
Related business
Manufacturer
SAST
Mission
Spacecraft
Bus & Motor
Unknown
Mass
Unknown
Launch date (UTC)
2024-08-06 (2 years ago)
Launch vehicle
Unknown
Launch site
Taiyaun Space Center, China (TSC)
Object type
Payload
Rocket body
Debris
Shape & HBR
Unknown shape, 0.1 m
Radar Cross Section
Small (<0.1 m²)

Expand to show TLE details & history
Last TLE update: 1 day ago

TLE from 1 day ago
0 CZ-6A DEB
1 61402U 24140XT  26170.38608278  .00015344  00000-0  44430-3 0  9997
2 61402  89.7057 327.3652 0168067   7.9377 352.4466 15.22527656 97524
Epoch: 2026-06-19T09:15Z
TLE epoch observation values (Epoch: 2026-06-19T09:15:57.552Z)
Latitude
-0.00001°
Longitude
-79.24041°
Altitude
386.862 km
Speed
7.742 km/s
True Right ascension
21h 49m 27s
True Declination
0° 00' 00"
Sunlit
Object was in full shadow at epoch
Visualization orbit readout
Latitude
Unknown
Longitude
Unknown
Altitude
Unknown
Speed
Unknown
Apparent Right ascension
Unknown
Apparent Declination
Unknown
Sunlit
N/A
Visualization observer readout
Local Sidereal Time
07:18:36
Azimuth
Unknown
Elevation
Unknown
Doppler factor
Unknown
Orbital elements
Apogee altitude
610.536 km
Perigee altitude
379.506 km
Semi-major axis
6,873.158 km
Eccentricity
0.01681
Inclination
89.7057°
RAAN
327.3652°
Arg. of periapsis
7.9377°
True anomaly
352.18806°
Mean anomaly
352.4466°
Eccentric anomaly
352.31788°
Mean motion
3.80898 °/min
Orbital period
94.51 mins
BSTAR
0.0004443
Loading maneuver chart data...
Computing Atmospheric mass density...
Loading historical data...
Loading historical data...
Loading historical data...
Loading historical data...
Loading historical data...
Loading historical data...
Loading historical data...

Documentation

Showing up to 5 results
|